Total_Precipitation_Accumulation
2.02 1.95 1.86 1.78 1.64 1.78 2.12 2.32 2.21 2.24 2.16 2.01 1.82 1.66 1.55 1.51 1.44 1.54 1.69 1.90 1.89 1.87 2.01 2.14 2.00 1.82 1.71 1.56 1.38 1.22 1.13 1.06 0.95 0.75 0.65 0.56 0.48 0.48 0.51 0.57 0.56 0.48 0.46
2.40 2.48 2.37 2.20 1.89 1.81 1.90 2.22 2.33 2.47 2.37 2.24 1.69 1.59 1.60 1.63 1.66 1.66 1.75 2.23 2.26 1.89 1.80 1.94 2.09 2.11 1.97 1.82 1.64 1.42 1.29 1.19 0.99 0.76 0.68 0.61 0.51 0.46 0.53 0.62 0.63 0.50 0.37
2.52 2.53 2.33 1.98 1.76 1.80 1.90 1.85 1.92 2.22 2.03 1.89 1.73 1.82 1.83 1.74 1.66 1.65 1.73 2.09 2.12 1.77 1.57 1.58 1.78 1.95 2.06 2.18 2.08 1.94 1.68 1.42 1.17 0.91 0.74 0.61 0.52 0.44 0.44 0.55 0.64 0.55 0.40
2.16 2.21 1.87 1.49 1.54 1.74 1.80 1.82 1.79 1.91 1.90 1.96 1.97 1.92 1.87 1.74 1.46 1.37 1.29 1.34 1.51 1.30 1.39 1.56 1.56 1.57 1.84 2.20 2.38 2.55 2.30 1.80 1.40 1.08 0.87 0.68 0.55 0.43 0.38 0.43 0.53 0.50 0.40
1.62 1.71 1.47 1.36 1.41 1.55 1.61 1.56 1.75 1.88 1.81 1.87 1.82 1.76 1.43 1.27 1.13 1.00 0.97 0.91 0.99 1.08 1.10 1.23 1.30 1.35 1.71 2.21 2.62 2.96 2.94 2.47 1.94 1.54 1.25 0.95 0.78 0.55 0.44 0.39 0.41 0.43 0.37
1.33 1.50 1.39 1.26 1.35 1.46 1.48 1.62 1.76 1.84 1.63 1.59 1.46 1.26 1.03 0.78 0.73 0.68 0.60 0.67 0.73 0.73 0.83 0.98 1.22 1.10 1.49 1.93 2.35 2.78 3.14 2.98 2.36 1.93 1.75 1.51 1.27 0.92 0.60 0.43 0.37 0.36 0.32
1.32 1.45 1.31 1.23 1.20 1.27 1.26 1.37 1.48 1.51 1.27 1.45 1.63 1.19 0.83 0.63 0.56 0.44 0.43 0.49 0.53 0.60 0.78 1.02 1.20 1.22 1.34 1.49 1.70 2.09 2.72 3.03 2.74 2.27 2.05 1.85 1.66 1.29 0.84 0.60 0.45 0.34 0.30
1.13 1.17 1.16 1.03 1.02 1.10 1.07 1.14 1.28 1.29 1.14 1.35 1.54 1.50 1.15 0.89 0.69 0.44 0.44 0.44 0.51 0.64 0.71 0.82 1.13 1.30 1.29 1.69 1.45 1.48 1.97 2.51 2.76 2.61 2.36 1.95 1.68 1.40 1.07 0.86 0.64 0.46 0.36
0.85 0.83 0.84 0.86 0.92 0.88 0.93 1.01 1.16 1.31 1.19 1.14 1.32 1.51 1.31 1.02 0.85 0.64 0.58 0.62 0.69 0.80 0.84 0.98 1.10 1.21 1.30 1.64 1.65 1.55 1.55 1.73 2.31 2.84 2.83 2.29 1.70 1.37 1.27 1.22 1.09 0.80 0.60
0.71 0.65 0.65 0.76 0.83 0.85 0.95 0.84 0.90 1.09 1.19 1.05 1.08 1.14 1.19 1.24 1.21 0.96 0.69 0.61 0.69 0.75 0.78 0.80 0.91 1.07 1.17 1.42 1.73 1.64 1.48 1.39 1.61 2.29 2.76 2.71 2.17 1.54 1.28 1.34 1.65 1.51 1.09
0.72 0.63 0.60 0.62 0.71 0.81 0.88 0.87 0.91 0.92 0.98 0.95 0.93 0.94 1.02 1.13 1.12 1.09 0.89 0.69 0.67 0.61 0.65 0.72 0.82 0.89 1.00 1.24 1.63 1.58 1.54 1.36 1.30 1.51 1.92 2.20 2.16 1.85 1.57 1.60 2.11 2.46 2.21
0.71 0.63 0.61 0.64 0.63 0.65 0.70 0.76 0.80 0.82 0.87 0.89 0.87 0.90 0.99 0.99 0.98 1.10 1.00 0.84 0.77 0.64 0.69 0.76 0.88 0.97 0.99 1.08 1.06 1.13 1.14 1.18 1.16 1.11 1.18 1.37 1.63 1.79 1.82 2.02 2.46 2.90 3.10
0.61 0.60 0.58 0.67 0.71 0.71 0.70 0.71 0.74 0.81 0.87 0.92 0.90 0.90 0.95 0.98 0.97 1.07 1.05 0.90 0.84 0.83 0.92 0.92 0.90 0.99 0.96 1.11 1.05 0.88 0.75 0.77 0.76 0.76 0.77 0.86 1.07 1.31 1.48 1.63 1.94 2.35 2.71
0.60 0.69 0.70 0.70 0.72 0.75 0.75 0.85 0.84 0.88 0.93 0.94 0.89 1.01 1.04 0.97 1.05 1.11 1.20 1.24 1.13 1.08 1.19 1.04 0.84 0.83 0.86 0.89 0.85 0.78 0.77 0.62 0.52 0.48 0.49 0.55 0.63 0.75 0.89 1.05 1.24 1.46 1.69
0.61 0.64 0.68 0.74 0.74 0.76 0.80 0.90 0.90 0.95 1.02 1.02 1.03 1.14 1.17 1.13 1.13 1.11 1.25 1.37 1.41 1.36 1.38 1.22 1.02 0.91 0.83 0.77 0.76 0.73 0.78 0.73 0.53 0.39 0.35 0.37 0.45 0.52 0.56 0.60 0.70 0.82 0.94
0.69 0.68 0.64 0.69 0.71 0.73 0.80 0.94 0.96 1.04 1.15 1.18 1.15 1.18 1.24 1.25 1.30 1.27 1.28 1.38 1.49 1.57 1.49 1.18 1.08 0.99 0.87 0.68 0.67 0.62 0.64 0.70 0.53 0.37 0.29 0.28 0.31 0.36 0.41 0.46 0.52 0.55 0.62
0.74 0.68 0.62 0.62 0.62 0.63 0.70 0.84 0.98 1.10 1.19 1.22 1.20 1.24 1.27 1.36 1.38 1.28 1.32 1.37 1.47 1.59 1.43 1.12 1.16 1.28 1.16 0.90 0.73 0.64 0.55 0.56 0.53 0.47 0.31 0.26 0.26 0.27 0.31 0.35 0.38 0.42 0.47
0.76 0.71 0.67 0.64 0.54 0.54 0.65 0.78 0.91 1.06 1.19 1.28 1.30 1.33 1.22 1.23 1.33 1.34 1.35 1.36 1.38 1.52 1.43 1.30 1.26 1.36 1.36 1.18 0.99 0.77 0.55 0.46 0.49 0.57 0.43 0.31 0.26 0.27 0.29 0.31 0.30 0.32 0.36
0.94 0.88 0.80 0.73 0.69 0.72 0.79 0.85 0.88 1.00 1.14 1.22 1.26 1.23 1.18 1.23 1.19 1.28 1.34 1.32 1.31 1.30 1.37 1.36 1.33 1.46 1.47 1.31 1.11 0.88 0.67 0.63 0.55 0.54 0.48 0.41 0.35 0.32 0.34 0.31 0.28 0.29 0.33
0.96 0.95 0.90 0.92 0.94 0.98 0.96 0.92 0.89 0.93 0.97 1.01 1.05 1.03 1.01 1.04 1.09 1.17 1.18 1.20 1.23 1.27 1.33 1.31 1.36 1.50 1.53 1.51 1.32 1.05 0.84 0.73 0.65 0.53 0.50 0.52 0.52 0.48 0.44 0.38 0.30 0.28 0.30
0.87 1.01 1.04 1.08 1.11 1.08 0.98 0.99 0.99 0.90 0.95 0.90 0.85 0.85 0.86 0.91 0.94 0.99 0.94 1.01 1.11 1.18 1.23 1.32 1.39 1.53 1.54 1.60 1.44 1.17 1.00 0.87 0.74 0.65 0.63 0.59 0.58 0.52 0.47 0.45 0.40 0.32 0.28
0.97 1.09 1.14 1.16 1.14 1.01 1.01 1.00 0.96 0.91 0.95 0.93 0.89 0.86 0.79 0.79 0.77 0.78 0.80 0.85 0.95 1.05 1.14 1.27 1.35 1.46 1.55 1.54 1.48 1.34 1.19 1.01 0.79 0.74 0.88 0.83 0.68 0.65 0.76 0.71 0.56 0.37 0.27
1.10 1.16 1.29 1.33 1.29 1.27 1.13 0.97 0.91 0.88 0.94 0.98 1.01 1.00 0.79 0.66 0.74 0.77 0.85 0.80 0.78 0.83 0.95 1.11 1.20 1.31 1.50 1.58 1.61 1.48 1.42 1.26 0.99 0.80 0.81 0.69 0.65 0.69 0.89 1.02 0.77 0.45 0.35
1.29 1.38 1.43 1.36 1.34 1.30 1.17 0.94 0.85 0.77 0.82 0.90 0.96 0.98 0.95 0.89 0.89 0.93 0.97 0.93 0.84 0.77 0.81 0.87 0.93 1.13 1.48 1.73 1.76 1.70 1.67 1.54 1.27 0.98 0.90 0.76 0.66 0.67 0.62 0.67 0.73 0.54 0.41
1.56 1.65 1.69 1.63 1.54 1.47 1.24 0.93 0.81 0.74 0.81 0.85 0.90 0.91 0.92 0.85 0.79 0.71 0.77 0.85 0.87 0.83 0.77 0.82 0.87 1.00 1.22 1.54 1.73 1.76 1.79 1.62 1.35 1.06 0.90 0.84 0.66 0.65 0.61 0.55 0.60 0.67 0.54
1.77 1.81 1.71 1.59 1.51 1.48 1.34 1.02 0.88 0.84 0.93 0.97 1.05 1.04 0.94 0.85 0.77 0.64 0.68 0.78 0.80 0.81 0.87 0.89 0.86 0.85 0.96 1.22 1.49 1.51 1.53 1.58 1.35 1.12 0.84 0.79 0.71 0.66 0.63 0.53 0.49 0.54 0.59